• In Belarus
  • List of Countries
  • For 7 days
  • Water Temperature
  • Satellite Maps
  • Weather Map
  • Weather Widgets
  • user-avatar
    Login

    Hourly Weather Olympia

    Today, 18 January, Friday

    Time Temperature Precipitation Wind Pressure Humidity
    00:00 +8°C° 0 mm 2 mps 764 mmHg 89%
    01:00 +7°C° 0 mm 2 mps 764 mmHg 90%
    02:00 +7°C° 0 mm 2 mps 764 mmHg 90%
    03:00 +7°C° 0 mm 2 mps 763 mmHg 90%
    04:00 +7°C° 0 mm 2 mps 763 mmHg 90%
    05:00 +7°C° 0 mm 2 mps 763 mmHg 90%
    06:00 +7°C° 0 mm 3 mps 763 mmHg 90%
    07:00 +7°C° 0 mm 3 mps 763 mmHg 90%
    08:00 +9°C° 0 mm 3 mps 763 mmHg 83%
    09:00 +11°C° 0 mm 3 mps 763 mmHg 76%
    10:00 +12°C° 0 mm 3 mps 763 mmHg 69%
    11:00 +13°C° 0 mm 4 mps 763 mmHg 67%
    12:00 +13°C° 0 mm 4 mps 763 mmHg 65%
    13:00 +14°C° 0 mm 4 mps 763 mmHg 64%
    14:00 +13°C° 0 mm 4 mps 763 mmHg 67%
    15:00 +13°C° 0 mm 4 mps 763 mmHg 70%
    16:00 +12°C° 0 mm 3 mps 762 mmHg 74%
    17:00 +11°C° 0 mm 3 mps 762 mmHg 76%
    18:00 +10°C° 0 mm 3 mps 763 mmHg 78%
    19:00 +8°C° 0 mm 4 mps 763 mmHg 80%
    20:00 +8°C° 0 mm 4 mps 763 mmHg 80%
    21:00 +7°C° 0 mm 4 mps 763 mmHg 80%
    22:00 +7°C° 0 mm 4 mps 763 mmHg 80%
    23:00 +7°C° 0 mm 4 mps 763 mmHg 79%

    Tomorrow, 19 January, Saturday

    Time Temperature Precipitation Wind Pressure Humidity
    00:00 +7°C° 0 mm 4 mps 763 mmHg 79%
    01:00 +7°C° 0 mm 4 mps 763 mmHg 78%
    02:00 +7°C° 0 mm 4 mps 763 mmHg 77%
    03:00 +7°C° 0 mm 4 mps 762 mmHg 76%
    04:00 +7°C° 0 mm 4 mps 762 mmHg 75%
    05:00 +7°C° 0.2 mm 4 mps 762 mmHg 74%
    06:00 +7°C° 0.2 mm 4 mps 762 mmHg 72%
    07:00 +7°C° 0.2 mm 4 mps 762 mmHg 71%
    08:00 +10°C° 0.3 mm 4 mps 762 mmHg 72%
    09:00 +11°C° 0.3 mm 4 mps 762 mmHg 72%
    10:00 +12°C° 0.3 mm 4 mps 762 mmHg 73%
    11:00 +12°C° 0.7 mm 5 mps 762 mmHg 73%
    12:00 +13°C° 0.7 mm 5 mps 762 mmHg 74%
    13:00 +13°C° 0.7 mm 5 mps 761 mmHg 75%
    14:00 +13°C° 1 mm 5 mps 761 mmHg 78%
    15:00 +12°C° 1 mm 5 mps 761 mmHg 80%
    16:00 +12°C° 1 mm 5 mps 760 mmHg 83%
    17:00 +10°C° 0.7 mm 5 mps 761 mmHg 84%
    18:00 +10°C° 0.7 mm 6 mps 761 mmHg 84%
    19:00 +10°C° 0.7 mm 6 mps 761 mmHg 85%
    20:00 +9°C° 0.7 mm 6 mps 761 mmHg 85%
    21:00 +9°C° 0.7 mm 6 mps 761 mmHg 85%
    22:00 +9°C° 0.7 mm 6 mps 761 mmHg 84%
    23:00 +9°C° 0.8 mm 6 mps 761 mmHg 85%

    Day after tomorrow, 20 January, Sunday

    Time Temperature Precipitation Wind Pressure Humidity
    00:00 +8°C° 0.8 mm 6 mps 761 mmHg 85%
    01:00 +8°C° 0.8 mm 5 mps 761 mmHg 85%
    02:00 +8°C° 0.9 mm 5 mps 761 mmHg 85%
    03:00 +8°C° 0.9 mm 5 mps 760 mmHg 85%
    04:00 +8°C° 0.9 mm 4 mps 760 mmHg 86%
    05:00 +7°C° 0.5 mm 4 mps 760 mmHg 86%
    06:00 +7°C° 0.5 mm 4 mps 760 mmHg 86%
    07:00 +7°C° 0.5 mm 4 mps 761 mmHg 85%
    08:00 +10°C° 0 mm 4 mps 761 mmHg 80%
    09:00 +12°C° 0 mm 4 mps 761 mmHg 74%
    10:00 +14°C° 0 mm 4 mps 761 mmHg 68%
    11:00 +14°C° 0.1 mm 4 mps 760 mmHg 66%
    12:00 +15°C° 0.1 mm 4 mps 760 mmHg 65%
    13:00 +15°C° 0.1 mm 4 mps 760 mmHg 63%
    14:00 +14°C° 0.3 mm 4 mps 759 mmHg 68%
    15:00 +14°C° 0.3 mm 3 mps 759 mmHg 72%
    16:00 +13°C° 0.3 mm 3 mps 759 mmHg 77%
    17:00 +13°C° 0.1 mm 2 mps 759 mmHg 79%
    18:00 +12°C° 0.1 mm 2 mps 760 mmHg 81%
    19:00 +11°C° 0.1 mm 1 mps 760 mmHg 83%
    20:00 +10°C° 0 mm 2 mps 760 mmHg 83%
    21:00 +9°C° 0 mm 2 mps 760 mmHg 83%
    22:00 +9°C° 0 mm 2 mps 760 mmHg 83%
    23:00 +9°C° 0 mm 2 mps 760 mmHg 82%

    21 January, Monday

    Time Temperature Precipitation Wind Pressure Humidity
    00:00 +9°C° 0 mm 2 mps 760 mmHg 81%
    01:00 +8°C° 0 mm 2 mps 760 mmHg 80%
    02:00 +8°C° 0 mm 2 mps 760 mmHg 79%
    03:00 +8°C° 0 mm 2 mps 760 mmHg 79%
    04:00 +8°C° 0 mm 2 mps 760 mmHg 78%
    05:00 +8°C° 0 mm 2 mps 760 mmHg 78%
    06:00 +8°C° 0 mm 2 mps 761 mmHg 78%
    07:00 +7°C° 0 mm 2 mps 761 mmHg 78%
    08:00 +10°C° 0 mm 2 mps 761 mmHg 73%
    09:00 +13°C° 0 mm 2 mps 761 mmHg 68%
    10:00 +15°C° 0 mm 2 mps 761 mmHg 63%
    11:00 +15°C° 0 mm 2 mps 761 mmHg 62%
    12:00 +16°C° 0 mm 2 mps 761 mmHg 60%
    13:00 +16°C° 0 mm 2 mps 760 mmHg 59%
    14:00 +16°C° 0 mm 2 mps 760 mmHg 64%
    15:00 +15°C° 0 mm 1 mps 760 mmHg 68%
    16:00 +14°C° 0 mm 1 mps 760 mmHg 73%
    17:00 +13°C° 0 mm 2 mps 760 mmHg 76%
    18:00 +12°C° 0 mm 2 mps 761 mmHg 79%
    19:00 +10°C° 0 mm 2 mps 761 mmHg 82%
    20:00 +10°C° 0 mm 3 mps 761 mmHg 82%
    21:00 +10°C° 0 mm 3 mps 761 mmHg 82%
    22:00 +10°C° 0 mm 4 mps 761 mmHg 81%
    23:00 +8°C° 0.1 mm 4 mps 761 mmHg 81%

    22 January, Tuesday

    Time Temperature Precipitation Wind Pressure Humidity
    00:00 +8°C° 0.1 mm 4 mps 761 mmHg 80%
    01:00 +8°C° 0.1 mm 4 mps 761 mmHg 80%
    02:00 +8°C° 0.3 mm 4 mps 760 mmHg 78%
    03:00 +8°C° 0.3 mm 4 mps 760 mmHg 77%
    04:00 +8°C° 0.3 mm 4 mps 760 mmHg 75%
    05:00 +8°C° 0.1 mm 5 mps 760 mmHg 75%
    06:00 +8°C° 0.1 mm 5 mps 759 mmHg 74%
    07:00 +8°C° 0.1 mm 5 mps 759 mmHg 74%
    08:00 +10°C° 0.1 mm 6 mps 759 mmHg 71%
    09:00 +11°C° 0.1 mm 6 mps 759 mmHg 67%
    10:00 +12°C° 0.1 mm 7 mps 759 mmHg 64%
    11:00 +12°C° 0.4 mm 7 mps 758 mmHg 68%
    12:00 +12°C° 0.4 mm 7 mps 757 mmHg 72%
    13:00 +12°C° 0.4 mm 8 mps 757 mmHg 75%
    14:00 +12°C° 0.8 mm 8 mps 756 mmHg 76%
    15:00 +12°C° 0.8 mm 8 mps 756 mmHg 76%
    16:00 +12°C° 0.8 mm 7 mps 755 mmHg 77%
    17:00 +11°C° 1.9 mm 7 mps 755 mmHg 80%
    18:00 +11°C° 1.9 mm 7 mps 754 mmHg 83%
    19:00 +10°C° 1.9 mm 7 mps 754 mmHg 87%
    20:00 +10°C° 1.5 mm 8 mps 754 mmHg 87%
    21:00 +11°C° 1.5 mm 8 mps 754 mmHg 86%
    22:00 +11°C° 1.5 mm 8 mps 754 mmHg 86%
    23:00 +10°C° 0.8 mm 8 mps 754 mmHg 85%

    23 January, Wednesday

    Time Temperature Precipitation Wind Pressure Humidity
    00:00 +10°C° 0.8 mm 7 mps 754 mmHg 85%
    01:00 +10°C° 0.8 mm 7 mps 754 mmHg 85%
    02:00 +10°C° 0.7 mm 7 mps 754 mmHg 85%
    03:00 +10°C° 0.7 mm 7 mps 753 mmHg 85%
    04:00 +9°C° 0.7 mm 7 mps 753 mmHg 85%
    05:00 +9°C° 0.4 mm 7 mps 753 mmHg 84%
    06:00 +9°C° 0.4 mm 7 mps 753 mmHg 83%
    07:00 +9°C° 0.4 mm 7 mps 754 mmHg 81%
    08:00 +10°C° 0.4 mm 8 mps 754 mmHg 80%
    09:00 +10°C° 0.4 mm 8 mps 754 mmHg 78%
    10:00 +11°C° 0.4 mm 8 mps 754 mmHg 77%
    11:00 +11°C° 0.5 mm 8 mps 753 mmHg 76%
    12:00 +11°C° 0.5 mm 8 mps 753 mmHg 75%
    13:00 +11°C° 0.5 mm 8 mps 752 mmHg 74%
    14:00 +11°C° 0.1 mm 7 mps 752 mmHg 75%
    15:00 +11°C° 0.1 mm 6 mps 752 mmHg 76%
    16:00 +10°C° 0.1 mm 5 mps 752 mmHg 77%
    17:00 +9°C° 0.1 mm 5 mps 752 mmHg 80%
    18:00 +9°C° 0.1 mm 5 mps 752 mmHg 82%
    19:00 +8°C° 0.1 mm 5 mps 752 mmHg 85%
    20:00 +7°C° 0.1 mm 5 mps 752 mmHg 86%
    21:00 +7°C° 0.1 mm 6 mps 751 mmHg 86%
    22:00 +7°C° 0.1 mm 6 mps 751 mmHg 87%
    23:00 +7°C° 0.4 mm 6 mps 750 mmHg 86%
    Show more